Year,Month,Day,Hour,Minute,Value (Times are PST for temperature in C)
2007,10,11,00,00,9.90
2007,10,11,00,01,9.90
2007,10,11,00,02,9.90
2007,10,11,00,03,9.90
2007,10,11,00,04,9.90
2007,10,11,00,05,9.90
2007,10,11,00,06,9.90
2007,10,11,00,07,9.90
2007,10,11,00,08,9.90
2007,10,11,00,09,9.90
2007,10,11,00,10,9.90
2007,10,11,00,11,9.90
2007,10,11,00,12,9.90
2007,10,11,00,13,9.90
2007,10,11,00,14,9.90
2007,10,11,00,15,9.90
2007,10,11,00,16,9.90
2007,10,11,00,17,9.90
2007,10,11,00,18,10.00
2007,10,11,00,19,10.10
2007,10,11,00,20,10.10
2007,10,11,00,21,10.10
2007,10,11,00,22,10.20
2007,10,11,00,23,10.20
2007,10,11,00,24,10.30
2007,10,11,00,25,10.40
2007,10,11,00,26,10.40
2007,10,11,00,27,10.40
2007,10,11,00,28,10.40
2007,10,11,00,29,10.50
2007,10,11,00,30,10.60
2007,10,11,00,31,10.60
2007,10,11,00,32,10.70
2007,10,11,00,33,10.80
2007,10,11,00,34,10.80
2007,10,11,00,35,10.90
2007,10,11,00,36,10.90
2007,10,11,00,37,11.10
2007,10,11,00,38,11.10
2007,10,11,00,39,11.20
2007,10,11,00,40,11.20
2007,10,11,00,41,11.20
2007,10,11,00,42,11.30
2007,10,11,00,43,11.30
2007,10,11,00,44,11.30
2007,10,11,00,45,11.40
2007,10,11,00,46,11.40
2007,10,11,00,47,11.40
2007,10,11,00,48,11.40
2007,10,11,00,49,11.30
2007,10,11,00,50,11.20
2007,10,11,00,51,11.10
2007,10,11,00,52,10.90
2007,10,11,00,53,10.80
2007,10,11,00,54,10.70
2007,10,11,00,55,10.60
2007,10,11,00,56,10.50
2007,10,11,00,57,10.40
2007,10,11,00,58,10.40
2007,10,11,00,59,10.40
2007,10,11,01,00,10.30
2007,10,11,01,01,10.30
2007,10,11,01,02,10.30
2007,10,11,01,03,10.20
2007,10,11,01,04,10.20
2007,10,11,01,05,10.20
2007,10,11,01,06,10.10
2007,10,11,01,07,10.10
2007,10,11,01,08,10.10
2007,10,11,01,09,10.10
2007,10,11,01,10,10.00
2007,10,11,01,11,9.90
2007,10,11,01,12,9.90
2007,10,11,01,13,9.80
2007,10,11,01,14,9.80
2007,10,11,01,15,9.70
2007,10,11,01,16,9.70
2007,10,11,01,17,9.60
2007,10,11,01,18,9.50
2007,10,11,01,19,9.50
2007,10,11,01,20,9.40
2007,10,11,01,21,9.40
2007,10,11,01,22,9.30
2007,10,11,01,23,9.30
2007,10,11,01,24,9.30
2007,10,11,01,25,9.30
2007,10,11,01,26,9.30
2007,10,11,01,27,9.30
2007,10,11,01,28,9.30
2007,10,11,01,29,9.30
2007,10,11,01,30,9.30
2007,10,11,01,31,9.30
2007,10,11,01,32,9.30
2007,10,11,01,33,9.30
2007,10,11,01,34,9.30
2007,10,11,01,35,9.30
2007,10,11,01,36,9.20
2007,10,11,01,37,9.20
2007,10,11,01,38,9.20
2007,10,11,01,39,9.20
2007,10,11,01,40,9.20
2007,10,11,01,41,9.20
2007,10,11,01,42,9.20
2007,10,11,01,43,9.20
2007,10,11,01,44,9.20
2007,10,11,01,45,9.20
2007,10,11,01,46,9.20
2007,10,11,01,47,9.20
2007,10,11,01,48,9.20
2007,10,11,01,49,9.20
2007,10,11,01,50,9.20
2007,10,11,01,51,9.20
2007,10,11,01,52,9.20
2007,10,11,01,53,9.20
2007,10,11,01,54,9.20
2007,10,11,01,55,9.20
2007,10,11,01,56,9.10
2007,10,11,01,57,9.10
2007,10,11,01,58,9.10
2007,10,11,01,59,9.10
2007,10,11,02,00,9.10
2007,10,11,02,01,9.10
2007,10,11,02,02,9.00
2007,10,11,02,03,9.00
2007,10,11,02,04,9.00
2007,10,11,02,05,9.00
2007,10,11,02,06,9.00
2007,10,11,02,07,9.00
2007,10,11,02,08,8.90
2007,10,11,02,09,8.90
2007,10,11,02,10,8.90
2007,10,11,02,11,8.90
2007,10,11,02,12,8.90
2007,10,11,02,13,8.90
2007,10,11,02,14,8.90
2007,10,11,02,15,8.90
2007,10,11,02,16,8.90
2007,10,11,02,17,8.80
2007,10,11,02,18,8.80
2007,10,11,02,19,8.80
2007,10,11,02,20,8.80
2007,10,11,02,21,8.80
2007,10,11,02,22,8.70
2007,10,11,02,23,8.70
2007,10,11,02,24,8.70
2007,10,11,02,25,8.70
2007,10,11,02,26,8.70
2007,10,11,02,27,8.70
2007,10,11,02,28,8.70
2007,10,11,02,29,8.70
2007,10,11,02,30,8.70
2007,10,11,02,31,8.70
2007,10,11,02,32,8.70
2007,10,11,02,33,8.70
2007,10,11,02,34,8.70
2007,10,11,02,35,8.70
2007,10,11,02,36,8.70
2007,10,11,02,37,8.70
2007,10,11,02,38,8.70
2007,10,11,02,39,8.70
2007,10,11,02,40,8.70
2007,10,11,02,41,8.60
2007,10,11,02,42,8.60
2007,10,11,02,43,8.60
2007,10,11,02,44,8.60
2007,10,11,02,45,8.60
2007,10,11,02,46,8.60
2007,10,11,02,47,8.60
2007,10,11,02,48,8.60
2007,10,11,02,49,8.60
2007,10,11,02,50,8.60
2007,10,11,02,51,8.60
2007,10,11,02,52,8.60
2007,10,11,02,53,8.60
2007,10,11,02,54,8.70
2007,10,11,02,55,8.70
2007,10,11,02,56,8.70
2007,10,11,02,57,8.70
2007,10,11,02,58,8.70
2007,10,11,02,59,8.70
2007,10,11,03,00,8.70
2007,10,11,03,01,8.70
2007,10,11,03,02,8.70
2007,10,11,03,03,8.70
2007,10,11,03,04,8.70
2007,10,11,03,05,8.60
2007,10,11,03,06,8.60
2007,10,11,03,07,8.60
2007,10,11,03,08,8.60
2007,10,11,03,09,8.60
2007,10,11,03,10,8.60
2007,10,11,03,11,8.60
2007,10,11,03,12,8.60
2007,10,11,03,13,8.60
2007,10,11,03,14,8.60
2007,10,11,03,15,8.50
2007,10,11,03,16,8.50
2007,10,11,03,17,8.50
2007,10,11,03,18,8.50
2007,10,11,03,19,8.50
2007,10,11,03,20,8.50
2007,10,11,03,21,8.50
2007,10,11,03,22,8.50
2007,10,11,03,23,8.50
2007,10,11,03,24,8.40
2007,10,11,03,25,8.40
2007,10,11,03,26,8.20
2007,10,11,03,27,8.20
2007,10,11,03,28,8.10
2007,10,11,03,29,8.10
2007,10,11,03,30,8.00
2007,10,11,03,31,8.00
2007,10,11,03,32,8.00
2007,10,11,03,33,8.00
2007,10,11,03,34,8.00
2007,10,11,03,35,8.00
2007,10,11,03,36,8.00
2007,10,11,03,37,8.00
2007,10,11,03,38,8.00
2007,10,11,03,39,8.10
2007,10,11,03,40,8.10
2007,10,11,03,41,8.10
2007,10,11,03,42,8.20
2007,10,11,03,43,8.20
2007,10,11,03,44,8.20
2007,10,11,03,45,8.20
2007,10,11,03,46,8.20
2007,10,11,03,47,8.20
2007,10,11,03,48,8.20
2007,10,11,03,49,8.20
2007,10,11,03,50,8.20
2007,10,11,03,51,8.20
2007,10,11,03,52,8.20
2007,10,11,03,53,8.20
2007,10,11,03,54,8.20
2007,10,11,03,55,8.10
2007,10,11,03,56,8.10
2007,10,11,03,57,8.10
2007,10,11,03,58,8.10
2007,10,11,03,59,8.10
2007,10,11,04,00,8.10
2007,10,11,04,01,8.10
2007,10,11,04,02,8.10
2007,10,11,04,03,8.20
2007,10,11,04,04,8.20
2007,10,11,04,05,8.20
2007,10,11,04,06,8.20
2007,10,11,04,07,8.20
2007,10,11,04,08,8.20
2007,10,11,04,09,8.20
2007,10,11,04,10,8.10
2007,10,11,04,11,8.10
2007,10,11,04,12,8.10
2007,10,11,04,13,8.10
2007,10,11,04,14,8.10
2007,10,11,04,15,8.00
2007,10,11,04,16,8.00
2007,10,11,04,17,8.00
2007,10,11,04,18,8.00
2007,10,11,04,19,8.00
2007,10,11,04,20,8.00
2007,10,11,04,21,8.00
2007,10,11,04,22,8.00
2007,10,11,04,23,7.90
2007,10,11,04,24,7.90
2007,10,11,04,25,7.90
2007,10,11,04,26,7.90
2007,10,11,04,27,7.90
2007,10,11,04,28,7.90
2007,10,11,04,29,7.90
2007,10,11,04,30,7.90
2007,10,11,04,31,7.90
2007,10,11,04,32,7.90
2007,10,11,04,33,7.90
2007,10,11,04,34,7.90
2007,10,11,04,35,7.90
2007,10,11,04,36,7.90
2007,10,11,04,37,7.90
2007,10,11,04,38,7.90
2007,10,11,04,39,7.90
2007,10,11,04,40,7.90
2007,10,11,04,41,7.90
2007,10,11,04,42,7.90
2007,10,11,04,43,7.90
2007,10,11,04,44,7.90
2007,10,11,04,45,7.90
2007,10,11,04,46,8.00
2007,10,11,04,47,8.00
2007,10,11,04,48,8.00
2007,10,11,04,49,8.00
2007,10,11,04,50,7.90
2007,10,11,04,51,7.90
2007,10,11,04,52,7.90
2007,10,11,04,53,7.90
2007,10,11,04,54,7.90
2007,10,11,04,55,7.90
2007,10,11,04,56,7.90
2007,10,11,04,57,7.90
2007,10,11,04,58,7.90
2007,10,11,04,59,7.90
2007,10,11,05,00,7.90
2007,10,11,05,01,7.90
2007,10,11,05,02,7.90
2007,10,11,05,03,7.90
2007,10,11,05,04,7.80
2007,10,11,05,05,7.80
2007,10,11,05,06,7.90
2007,10,11,05,07,7.90
2007,10,11,05,08,8.00
2007,10,11,05,09,8.00
2007,10,11,05,10,8.00
2007,10,11,05,11,8.00
2007,10,11,05,12,8.00
2007,10,11,05,13,8.00
2007,10,11,05,14,8.00
2007,10,11,05,15,7.90
2007,10,11,05,16,7.90
2007,10,11,05,17,7.80
2007,10,11,05,18,7.80
2007,10,11,05,19,7.90
2007,10,11,05,20,7.90
2007,10,11,05,21,7.90
2007,10,11,05,22,7.90
2007,10,11,05,23,7.90
2007,10,11,05,24,7.80
2007,10,11,05,25,7.80
2007,10,11,05,26,7.80
2007,10,11,05,27,7.80
2007,10,11,05,28,7.80
2007,10,11,05,29,7.80
2007,10,11,05,30,7.80
2007,10,11,05,31,7.80
2007,10,11,05,32,7.80
2007,10,11,05,33,7.80
2007,10,11,05,34,7.80
2007,10,11,05,35,7.80
2007,10,11,05,36,7.90
2007,10,11,05,37,7.90
2007,10,11,05,38,7.90
2007,10,11,05,39,8.00
2007,10,11,05,40,8.00
2007,10,11,05,41,8.00
2007,10,11,05,42,8.00
2007,10,11,05,43,8.10
2007,10,11,05,44,8.10
2007,10,11,05,45,8.10
2007,10,11,05,46,8.10
2007,10,11,05,47,8.10
2007,10,11,05,48,8.00
2007,10,11,05,49,8.00
2007,10,11,05,50,8.00
2007,10,11,05,51,8.00
2007,10,11,05,52,8.00
2007,10,11,05,53,8.00
2007,10,11,05,54,8.00
2007,10,11,05,55,8.00
2007,10,11,05,56,8.00
2007,10,11,05,57,8.00
2007,10,11,05,58,8.00
2007,10,11,05,59,8.00
2007,10,11,06,00,8.00
2007,10,11,06,01,8.00
2007,10,11,06,02,8.00
2007,10,11,06,03,8.00
2007,10,11,06,04,7.90
2007,10,11,06,05,7.90
2007,10,11,06,06,7.90
2007,10,11,06,07,7.90
2007,10,11,06,08,7.90
2007,10,11,06,09,7.90
2007,10,11,06,10,7.90
2007,10,11,06,11,7.90
2007,10,11,06,12,7.90
2007,10,11,06,13,7.80
2007,10,11,06,14,7.90
2007,10,11,06,15,7.90
2007,10,11,06,16,7.90
2007,10,11,06,17,7.90
2007,10,11,06,18,8.00
2007,10,11,06,19,8.00
2007,10,11,06,20,8.00
2007,10,11,06,21,8.00
2007,10,11,06,22,8.10
2007,10,11,06,23,8.10
2007,10,11,06,24,8.10
2007,10,11,06,25,8.00
2007,10,11,06,26,8.00
2007,10,11,06,27,8.00
2007,10,11,06,28,8.00
2007,10,11,06,29,8.00
2007,10,11,06,30,8.00
2007,10,11,06,31,8.00
2007,10,11,06,32,8.00
2007,10,11,06,33,7.90
2007,10,11,06,34,7.90
2007,10,11,06,35,7.90
2007,10,11,06,36,7.90
2007,10,11,06,37,7.90
2007,10,11,06,38,7.90
2007,10,11,06,39,8.00
2007,10,11,06,40,8.00
2007,10,11,06,41,8.00
2007,10,11,06,42,8.00
2007,10,11,06,43,8.00
2007,10,11,06,44,8.00
2007,10,11,06,45,8.00
2007,10,11,06,46,8.00
2007,10,11,06,47,8.10
2007,10,11,06,48,8.10
2007,10,11,06,49,8.10
2007,10,11,06,50,8.00
2007,10,11,06,51,8.00
2007,10,11,06,52,7.90
2007,10,11,06,53,7.90
2007,10,11,06,54,7.80
2007,10,11,06,55,7.80
2007,10,11,06,56,7.80
2007,10,11,06,57,7.80
2007,10,11,06,58,7.70
2007,10,11,06,59,7.70
2007,10,11,07,00,7.70
2007,10,11,07,01,7.60
2007,10,11,07,02,7.60
2007,10,11,07,03,7.60
2007,10,11,07,04,7.60
2007,10,11,07,05,7.60
2007,10,11,07,06,7.70
2007,10,11,07,07,7.70
2007,10,11,07,08,7.70
2007,10,11,07,09,7.70
2007,10,11,07,10,7.80
2007,10,11,07,11,7.80
2007,10,11,07,12,7.80
2007,10,11,07,13,7.80
2007,10,11,07,14,7.80
2007,10,11,07,15,7.80
2007,10,11,07,16,7.80
2007,10,11,07,17,7.80
2007,10,11,07,18,7.80
2007,10,11,07,19,7.80
2007,10,11,07,20,7.80
2007,10,11,07,21,7.80
2007,10,11,07,22,7.80
2007,10,11,07,23,7.80
2007,10,11,07,24,7.80
2007,10,11,07,25,7.80
2007,10,11,07,26,7.80
2007,10,11,07,27,7.80
2007,10,11,07,28,7.90
2007,10,11,07,29,7.90
2007,10,11,07,30,7.90
2007,10,11,07,31,8.00
2007,10,11,07,32,8.00
2007,10,11,07,33,8.10
2007,10,11,07,34,8.10
2007,10,11,07,35,8.10
2007,10,11,07,36,8.10
2007,10,11,07,37,8.10
2007,10,11,07,38,8.10
2007,10,11,07,39,8.10
2007,10,11,07,40,8.10
2007,10,11,07,41,8.00
2007,10,11,07,42,8.00
2007,10,11,07,43,8.00
2007,10,11,07,44,8.00
2007,10,11,07,45,8.00
2007,10,11,07,46,8.00
2007,10,11,07,47,7.90
2007,10,11,07,48,7.90
2007,10,11,07,49,7.90
2007,10,11,07,50,7.90
2007,10,11,07,51,7.90
2007,10,11,07,52,7.80
2007,10,11,07,53,7.80
2007,10,11,07,54,7.80
2007,10,11,07,55,7.80
2007,10,11,07,56,7.80
2007,10,11,07,57,7.80
2007,10,11,07,58,7.80
2007,10,11,07,59,7.80
2007,10,11,08,00,7.80
2007,10,11,08,01,7.80
2007,10,11,08,02,7.80
2007,10,11,08,03,7.80
2007,10,11,08,04,7.80
2007,10,11,08,05,7.70
2007,10,11,08,06,7.70
2007,10,11,08,07,7.70
2007,10,11,08,08,7.70
2007,10,11,08,09,7.70
2007,10,11,08,10,7.70
2007,10,11,08,11,7.70
2007,10,11,08,12,7.70
2007,10,11,08,13,7.70
2007,10,11,08,14,7.70
2007,10,11,08,15,7.70
2007,10,11,08,16,7.70
2007,10,11,08,17,7.70
2007,10,11,08,18,7.80
2007,10,11,08,19,7.80
2007,10,11,08,20,7.80
2007,10,11,08,21,7.80
2007,10,11,08,22,7.80
2007,10,11,08,23,7.80
2007,10,11,08,24,7.80
2007,10,11,08,25,7.80
2007,10,11,08,26,7.80
2007,10,11,08,27,7.80
2007,10,11,08,28,7.90
2007,10,11,08,29,7.90
2007,10,11,08,30,7.90
2007,10,11,08,31,7.90
2007,10,11,08,32,8.00
2007,10,11,08,33,8.00
2007,10,11,08,34,8.00
2007,10,11,08,35,8.10
2007,10,11,08,36,8.10
2007,10,11,08,37,8.20
2007,10,11,08,38,8.20
2007,10,11,08,39,8.20
2007,10,11,08,40,8.20
2007,10,11,08,41,8.20
2007,10,11,08,42,8.20
2007,10,11,08,43,8.30
2007,10,11,08,44,8.30
2007,10,11,08,45,8.30
2007,10,11,08,46,8.30
2007,10,11,08,47,8.30
2007,10,11,08,48,8.30
2007,10,11,08,49,8.30
2007,10,11,08,50,8.30
2007,10,11,08,51,8.30
2007,10,11,08,52,8.30
2007,10,11,08,53,8.40
2007,10,11,08,54,8.40
2007,10,11,08,55,8.40
2007,10,11,08,56,8.40
2007,10,11,08,57,8.40
2007,10,11,08,58,8.40
2007,10,11,08,59,8.50
2007,10,11,09,00,8.50
2007,10,11,09,01,8.50
2007,10,11,09,02,8.50
2007,10,11,09,03,8.60
2007,10,11,09,04,8.60
2007,10,11,09,05,8.60
2007,10,11,09,06,8.60
2007,10,11,09,07,8.60
2007,10,11,09,08,8.60
2007,10,11,09,09,8.70
2007,10,11,09,10,8.70
2007,10,11,09,11,8.70
2007,10,11,09,12,8.70
2007,10,11,09,13,8.70
2007,10,11,09,14,8.70
2007,10,11,09,15,8.70
2007,10,11,09,16,8.70
2007,10,11,09,17,8.70
2007,10,11,09,18,8.80
2007,10,11,09,19,8.80
2007,10,11,09,20,8.80
2007,10,11,09,21,8.80
2007,10,11,09,22,8.80
2007,10,11,09,23,8.80
2007,10,11,09,24,8.90
2007,10,11,09,25,8.90
2007,10,11,09,26,8.90
2007,10,11,09,27,8.90
2007,10,11,09,28,9.00
2007,10,11,09,29,9.00
2007,10,11,09,30,9.00
2007,10,11,09,31,9.10
2007,10,11,09,32,9.10
2007,10,11,09,33,9.20
2007,10,11,09,34,9.20
2007,10,11,09,35,9.20
2007,10,11,09,36,9.30
2007,10,11,09,37,9.30
2007,10,11,09,38,9.30
2007,10,11,09,39,9.40
2007,10,11,09,40,9.40
2007,10,11,09,41,9.50
2007,10,11,09,42,9.50
2007,10,11,09,43,9.50
2007,10,11,09,44,9.60
2007,10,11,09,45,9.60
2007,10,11,09,46,9.70
2007,10,11,09,47,9.70
2007,10,11,09,48,9.70
2007,10,11,09,49,9.70
2007,10,11,09,50,9.70
2007,10,11,09,51,9.80
2007,10,11,09,52,9.80
2007,10,11,09,53,9.80
2007,10,11,09,54,9.90
2007,10,11,09,55,9.90
2007,10,11,09,56,9.90
2007,10,11,09,57,9.90
2007,10,11,09,58,10.00
2007,10,11,09,59,10.10
2007,10,11,10,00,10.10
2007,10,11,10,01,10.10
2007,10,11,10,02,10.10
2007,10,11,10,03,10.20
2007,10,11,10,04,10.20
2007,10,11,10,05,10.30
2007,10,11,10,06,10.30
2007,10,11,10,07,10.40
2007,10,11,10,08,10.40
2007,10,11,10,09,10.50
2007,10,11,10,10,10.60
2007,10,11,10,11,10.60
2007,10,11,10,12,10.70
2007,10,11,10,13,10.80
2007,10,11,10,14,10.90
2007,10,11,10,15,10.90
2007,10,11,10,16,11.00
2007,10,11,10,17,11.10
2007,10,11,10,18,11.10
2007,10,11,10,19,11.10
2007,10,11,10,20,11.10
2007,10,11,10,21,11.10
2007,10,11,10,22,11.20
2007,10,11,10,23,11.30
2007,10,11,10,24,11.30
2007,10,11,10,25,11.40
2007,10,11,10,26,11.40
2007,10,11,10,27,11.40
2007,10,11,10,28,11.40
2007,10,11,10,29,11.40
2007,10,11,10,30,11.50
2007,10,11,10,31,11.40
2007,10,11,10,32,11.50
2007,10,11,10,33,11.60
2007,10,11,10,34,11.60
2007,10,11,10,35,11.70
2007,10,11,10,36,11.80
2007,10,11,10,37,11.80
2007,10,11,10,38,11.80
2007,10,11,10,39,11.80
2007,10,11,10,40,11.80
2007,10,11,10,41,11.80
2007,10,11,10,42,11.80
2007,10,11,10,43,11.80
2007,10,11,10,44,11.80
2007,10,11,10,45,11.80
2007,10,11,10,46,11.90
2007,10,11,10,47,12.00
2007,10,11,10,48,12.10
2007,10,11,10,49,12.10
2007,10,11,10,50,12.00
2007,10,11,10,51,12.10
2007,10,11,10,52,12.10
2007,10,11,10,53,12.10
2007,10,11,10,54,12.10
2007,10,11,10,55,12.10
2007,10,11,10,56,12.00
2007,10,11,10,57,11.90
2007,10,11,10,58,11.90
2007,10,11,10,59,11.80
2007,10,11,11,00,11.80
2007,10,11,11,01,11.80
2007,10,11,11,02,11.80
2007,10,11,11,03,11.80
2007,10,11,11,04,11.80
2007,10,11,11,05,11.70
2007,10,11,11,06,11.70
2007,10,11,11,07,11.70
2007,10,11,11,08,11.70
2007,10,11,11,09,11.80
2007,10,11,11,10,11.80
2007,10,11,11,11,11.80
2007,10,11,11,12,11.80
2007,10,11,11,13,11.90
2007,10,11,11,14,11.90
2007,10,11,11,15,12.00
2007,10,11,11,16,11.90
2007,10,11,11,17,11.90
2007,10,11,11,18,11.90
2007,10,11,11,19,11.90
2007,10,11,11,20,11.90
2007,10,11,11,21,11.90
2007,10,11,11,22,11.90
2007,10,11,11,23,12.00
2007,10,11,11,24,12.00
2007,10,11,11,25,12.00
2007,10,11,11,26,12.10
2007,10,11,11,27,12.10
2007,10,11,11,28,12.10
2007,10,11,11,29,12.10
2007,10,11,11,30,12.10
2007,10,11,11,31,12.20
2007,10,11,11,32,12.20
2007,10,11,11,33,12.20
2007,10,11,11,34,12.30
2007,10,11,11,35,12.30
2007,10,11,11,36,12.30
2007,10,11,11,37,12.30
2007,10,11,11,38,12.30
2007,10,11,11,39,12.30
2007,10,11,11,40,12.30
2007,10,11,11,41,12.30
2007,10,11,11,42,12.30
2007,10,11,11,43,12.40
2007,10,11,11,44,12.40
2007,10,11,11,45,12.50
2007,10,11,11,46,12.40
2007,10,11,11,47,12.40
2007,10,11,11,48,12.40
2007,10,11,11,49,12.40
2007,10,11,11,50,12.40
2007,10,11,11,51,12.40
2007,10,11,11,52,12.40
2007,10,11,11,53,12.40
2007,10,11,11,54,12.30
2007,10,11,11,55,12.30
2007,10,11,11,56,12.30
2007,10,11,11,57,12.30
2007,10,11,11,58,12.30
2007,10,11,11,59,12.30
2007,10,11,12,00,12.30
2007,10,11,12,01,12.30
2007,10,11,12,02,12.30
2007,10,11,12,03,12.30
2007,10,11,12,04,12.30
2007,10,11,12,05,12.30
2007,10,11,12,06,12.30
2007,10,11,12,07,12.30
2007,10,11,12,08,12.30
2007,10,11,12,09,12.30
2007,10,11,12,10,12.30
2007,10,11,12,11,12.30
2007,10,11,12,12,12.30
2007,10,11,12,13,12.30
2007,10,11,12,14,12.30
2007,10,11,12,15,12.30
2007,10,11,12,16,12.30
2007,10,11,12,17,12.30
2007,10,11,12,18,12.30
2007,10,11,12,19,12.30
2007,10,11,12,20,12.30
2007,10,11,12,21,12.30
2007,10,11,12,22,12.20
2007,10,11,12,23,12.20
2007,10,11,12,24,12.20
2007,10,11,12,25,12.30
2007,10,11,12,26,12.30
2007,10,11,12,27,12.30
2007,10,11,12,28,12.20
2007,10,11,12,29,12.20
2007,10,11,12,30,12.20
2007,10,11,12,31,12.20
2007,10,11,12,32,12.20
2007,10,11,12,33,12.20
2007,10,11,12,34,12.20
2007,10,11,12,35,12.20
2007,10,11,12,36,12.20
2007,10,11,12,37,12.20
2007,10,11,12,38,12.20
2007,10,11,12,39,12.20
2007,10,11,12,40,12.20
2007,10,11,12,41,12.20
2007,10,11,12,42,12.20
2007,10,11,12,43,12.30
2007,10,11,12,44,12.30
2007,10,11,12,45,12.30
2007,10,11,12,46,12.30
2007,10,11,12,47,12.30
2007,10,11,12,48,12.30
2007,10,11,12,49,12.30
2007,10,11,12,50,12.30
2007,10,11,12,51,12.30
2007,10,11,12,52,12.30
2007,10,11,12,53,12.30
2007,10,11,12,54,12.30
2007,10,11,12,55,12.30
2007,10,11,12,56,12.30
2007,10,11,12,57,12.30
2007,10,11,12,58,12.30
2007,10,11,12,59,12.30
2007,10,11,13,00,12.30
2007,10,11,13,01,12.30
2007,10,11,13,02,12.30
2007,10,11,13,03,12.30
2007,10,11,13,04,12.30
2007,10,11,13,05,12.30
2007,10,11,13,06,12.30
2007,10,11,13,07,12.30
2007,10,11,13,08,12.30
2007,10,11,13,09,12.30
2007,10,11,13,10,12.30
2007,10,11,13,11,12.30
2007,10,11,13,12,12.30
2007,10,11,13,13,12.30
2007,10,11,13,14,12.30
2007,10,11,13,15,12.30
2007,10,11,13,16,12.30
2007,10,11,13,17,12.30
2007,10,11,13,18,12.30
2007,10,11,13,19,12.30
2007,10,11,13,20,12.40
2007,10,11,13,21,12.40
2007,10,11,13,22,12.40
2007,10,11,13,23,12.40
2007,10,11,13,24,12.40
2007,10,11,13,25,12.40
2007,10,11,13,26,12.40
2007,10,11,13,27,12.40
2007,10,11,13,28,12.40
2007,10,11,13,29,12.40
2007,10,11,13,30,12.40
2007,10,11,13,31,12.40
2007,10,11,13,32,12.50
2007,10,11,13,33,12.50
2007,10,11,13,34,12.50
2007,10,11,13,35,12.60
2007,10,11,13,36,12.60
2007,10,11,13,37,12.60
2007,10,11,13,38,12.70
2007,10,11,13,39,12.70
2007,10,11,13,40,12.80
2007,10,11,13,41,12.80
2007,10,11,13,42,12.80
2007,10,11,13,43,12.90
2007,10,11,13,44,12.90
2007,10,11,13,45,12.90
2007,10,11,13,46,13.00
2007,10,11,13,47,13.00
2007,10,11,13,48,12.90
2007,10,11,13,49,12.90
2007,10,11,13,50,12.90
2007,10,11,13,51,12.90
2007,10,11,13,52,12.90
2007,10,11,13,53,12.90
2007,10,11,13,54,12.90
2007,10,11,13,55,12.90
2007,10,11,13,56,12.90
2007,10,11,13,57,12.90
2007,10,11,13,58,12.90
2007,10,11,13,59,12.80
2007,10,11,14,00,12.80
2007,10,11,14,01,12.80
2007,10,11,14,02,12.80
2007,10,11,14,03,12.80
2007,10,11,14,04,12.80
2007,10,11,14,05,12.90
2007,10,11,14,06,12.90
2007,10,11,14,07,12.90
2007,10,11,14,08,13.00
2007,10,11,14,09,13.00
2007,10,11,14,10,13.00
2007,10,11,14,11,13.00
2007,10,11,14,12,13.10
2007,10,11,14,13,13.10
2007,10,11,14,14,13.10
2007,10,11,14,15,13.10
2007,10,11,14,16,13.10
2007,10,11,14,17,13.10
2007,10,11,14,18,13.10
2007,10,11,14,19,13.10
2007,10,11,14,20,13.10
2007,10,11,14,21,13.20
2007,10,11,14,22,13.20
2007,10,11,14,23,13.20
2007,10,11,14,24,13.20
2007,10,11,14,25,13.20
2007,10,11,14,26,13.20
2007,10,11,14,27,13.20
2007,10,11,14,28,13.20
2007,10,11,14,29,13.20
2007,10,11,14,30,13.20
2007,10,11,14,31,13.20
2007,10,11,14,32,13.20
2007,10,11,14,33,13.20
2007,10,11,14,34,13.30
2007,10,11,14,35,13.30
2007,10,11,14,36,13.30
2007,10,11,14,37,13.30
2007,10,11,14,38,13.20
2007,10,11,14,39,13.20
2007,10,11,14,40,13.30
2007,10,11,14,41,13.30
2007,10,11,14,42,13.30
2007,10,11,14,43,13.30
2007,10,11,14,44,13.30
2007,10,11,14,45,13.30
2007,10,11,21,13,9.90
2007,10,11,21,14,9.90
2007,10,11,21,15,9.90
2007,10,11,21,16,9.90
2007,10,11,21,17,9.90
2007,10,11,21,18,9.90
2007,10,11,21,19,9.90
2007,10,11,21,20,9.90
2007,10,11,21,21,9.90
2007,10,11,21,22,9.90
2007,10,11,21,23,9.90
2007,10,11,21,24,9.90
2007,10,11,21,25,9.90
2007,10,11,21,26,9.90
2007,10,11,21,27,9.90
2007,10,11,21,28,9.90
2007,10,11,21,29,9.90
2007,10,11,21,30,9.90
2007,10,11,21,31,9.90
2007,10,11,21,32,9.90
2007,10,11,21,33,9.90
2007,10,11,21,34,9.90
2007,10,11,21,35,10.00
2007,10,11,21,36,10.10
2007,10,11,21,37,10.10
2007,10,11,21,38,10.10
2007,10,11,21,39,10.10
2007,10,11,21,40,10.10
2007,10,11,21,41,10.10
2007,10,11,21,42,10.10
2007,10,11,21,43,10.10
2007,10,11,21,44,10.10
2007,10,11,21,45,10.10
2007,10,11,21,46,10.10
2007,10,11,21,47,10.10
2007,10,11,21,48,10.10
2007,10,11,21,49,10.10
2007,10,11,21,50,10.10
2007,10,11,21,51,10.10
2007,10,11,21,52,10.10
2007,10,11,21,53,10.10
2007,10,11,21,54,10.10
2007,10,11,21,55,10.10
2007,10,11,21,56,10.10
2007,10,11,21,57,10.10
2007,10,11,21,58,10.10
2007,10,11,21,59,10.10
2007,10,11,22,00,10.10
2007,10,11,22,01,10.10
2007,10,11,22,02,10.10
2007,10,11,22,03,9.90
2007,10,11,22,04,9.90
2007,10,11,22,05,9.90
2007,10,11,22,06,9.90
2007,10,11,22,07,9.90
2007,10,11,22,08,9.90
2007,10,11,22,09,9.90
2007,10,11,22,10,9.90
2007,10,11,22,11,9.90
2007,10,11,22,12,9.90
2007,10,11,22,13,9.90
2007,10,11,22,14,9.90
2007,10,11,22,15,9.90
2007,10,11,22,16,9.90
2007,10,11,22,17,9.90
2007,10,11,22,18,9.90
2007,10,11,22,19,9.90
2007,10,11,22,20,9.90
2007,10,11,22,21,9.90
2007,10,11,22,22,9.90
2007,10,11,22,23,9.90
2007,10,11,22,24,9.90
2007,10,11,22,25,9.90
2007,10,11,22,26,9.90
2007,10,11,22,27,9.90
2007,10,11,22,28,9.90
2007,10,11,22,29,9.90
2007,10,11,22,30,9.90
2007,10,11,22,31,9.90
2007,10,11,22,32,9.90
2007,10,11,22,33,9.80
2007,10,11,22,34,9.80
2007,10,11,22,35,9.80
2007,10,11,22,36,9.80
2007,10,11,22,37,9.80
2007,10,11,22,38,9.80
2007,10,11,22,39,9.80
2007,10,11,22,40,9.80
2007,10,11,22,41,9.80
2007,10,11,22,42,9.80
2007,10,11,22,43,9.80
2007,10,11,22,44,9.80
2007,10,11,22,45,9.80
2007,10,11,22,46,9.70
2007,10,11,22,47,9.70
2007,10,11,22,48,9.70
2007,10,11,22,49,9.70
2007,10,11,22,50,9.70
2007,10,11,22,51,9.70
2007,10,11,22,52,9.70
2007,10,11,22,53,9.80
2007,10,11,22,54,9.80
2007,10,11,22,55,9.80
2007,10,11,22,56,9.80
2007,10,11,22,57,9.80
2007,10,11,22,58,9.80
2007,10,11,22,59,9.80
2007,10,11,23,00,9.80
2007,10,11,23,01,9.80
2007,10,11,23,02,9.80
2007,10,11,23,03,9.90
2007,10,11,23,04,9.90
2007,10,11,23,05,9.90
2007,10,11,23,06,9.90
2007,10,11,23,07,9.90
2007,10,11,23,08,9.90
2007,10,11,23,09,9.90
2007,10,11,23,10,9.90
2007,10,11,23,11,9.90
2007,10,11,23,12,9.90
2007,10,11,23,13,9.90
2007,10,11,23,14,9.90
2007,10,11,23,15,9.90
2007,10,11,23,16,9.90
2007,10,11,23,17,9.90
2007,10,11,23,18,9.90
2007,10,11,23,19,9.90
2007,10,11,23,20,10.00
2007,10,11,23,21,10.00
2007,10,11,23,22,10.10
2007,10,11,23,23,10.10
2007,10,11,23,24,10.10
2007,10,11,23,25,10.10
2007,10,11,23,26,10.10
2007,10,11,23,27,10.10
2007,10,11,23,28,10.10
2007,10,11,23,29,10.10
2007,10,11,23,30,10.10
2007,10,11,23,31,10.10
2007,10,11,23,32,10.10
2007,10,11,23,33,10.10
2007,10,11,23,34,10.10
2007,10,11,23,35,10.10
2007,10,11,23,36,10.10
2007,10,11,23,37,10.10
2007,10,11,23,38,10.10
2007,10,11,23,39,10.10
2007,10,11,23,40,10.10
2007,10,11,23,41,10.10
2007,10,11,23,42,10.10
2007,10,11,23,43,10.10
2007,10,11,23,44,10.10
2007,10,11,23,45,10.10
2007,10,11,23,46,10.10
2007,10,11,23,47,10.10
2007,10,11,23,48,9.90
2007,10,11,23,49,9.90
2007,10,11,23,50,9.90
2007,10,11,23,51,9.90
2007,10,11,23,52,9.90
2007,10,11,23,53,9.90
2007,10,11,23,54,9.90
2007,10,11,23,55,9.90
2007,10,11,23,56,9.90
2007,10,11,23,57,9.90
2007,10,11,23,58,9.90
2007,10,11,23,59,9.90
